Regional Weather Roundup
Issued by NWS Sioux Falls, SD

Home | Current Version | Previous Version | Text Only | Print | Product List | Glossary Off
Versions: 1 2 3 4 5 6 7 8 9 10 11 12 13 14 15 16 17 18 19 20 21 22 23 24 25 26 27 28 29 30 31 32 33 34 35 36 37 38 39 40 41 42 43 44 45 46 47 48 49 50

000
ASUS43 KFSD 220310
RWRFSD

WEATHER ROUNDUP FOR SE SOUTH DAKOTA/SW MINNESOTA/NW IOWA
NATIONAL WEATHER SERVICE SIOUX FALLS SD
900 PM CST SUN DEC 21 2014

NOTE: "FAIR" INDICATES FEW OR NO CLOUDS BELOW 12,000 FEET WITH NO
SIGNIFICANT WEATHER AND OR OBSTRUCTIONS TO VISIBILITY.


SDZ038>040-050-052>070-220400-
SOUTHEAST SOUTH DAKOTA

CITY           SKY/WX    TMP DP  RH WIND       PRES   REMARKS
CHAMBERLAIN    CLOUDY    33  31  93 S7        29.41S WCI  26
HURON          CLOUDY    36  33  89 S15       29.46F
MADISON        FOG       36  36 100 S17G23    29.51F VSB 1/4
MITCHELL       CLOUDY    38  36  92 S13       29.48S
SIOUX FALLS    CLOUDY    39  37  92 S16       29.55F
WINNER         CLOUDY    41  31  67 SW14      29.42R
YANKTON        CLOUDY    39  36  87 S15       29.54F
$$

MNZ071-072-080-081-089-090-097-098-220400-
SOUTHWEST MINNESOTA

CITY           SKY/WX    TMP DP  RH WIND       PRES   REMARKS
FAIRMONT       CLOUDY    37  34  87 S18       29.68S
JACKSON        CLOUDY    37  36  93 S13G21    29.65F FOG
LUVERNE        CLOUDY    37  37 100 S14       29.59F FOG
MARSHALL       CLOUDY    37  34  87 S17       29.58F
MONTEVIDEO     CLOUDY    36  36 100 S8        29.61F FOG
PIPESTONE      CLOUDY    36  36 100 S17       29.55F FOG
REDWOOD FALLS  CLOUDY    38  36  92 S16       29.64S FOG
TRACY          CLOUDY    38  37  93 S15G21    29.59F
WINDOM         CLOUDY    37  37 100 S15       29.63F FOG
WORTHINGTON    CLOUDY    37 -11  12 S15       29.62F
$$

IAZ001>003-012>014-020>022-031-032-NEZ013-014-SDZ071-220400-
NORTHWEST IOWA

CITY           SKY/WX    TMP DP  RH WIND       PRES   REMARKS
CHEROKEE       CLOUDY    38  38 100 S10       29.66S FOG
DENISON        CLOUDY    41  41 100 S16G22    29.66F FOG
ESTHERVILLE    CLOUDY    37  37 100 S15       29.67S FOG
LE MARS        CLOUDY    41  39  93 S18G25    29.61F FOG
ORANGE CITY    CLOUDY    39  37  93 S12G17    29.61F FOG
SHELDON        CLOUDY    37  37 100 S18       29.60F FOG
SIOUX CITY     CLOUDY    41  39  93 SE9       29.62F
SPENCER        CLOUDY    38  37  97 S17       29.65F FOG
STORM LAKE     CLOUDY    39  39 100 S17       29.66F FOG
$$

ABBREVIATIONS USED IN REMARKS
   TC - TEMPERATURE IN CELSIUS
  WCI - WIND CHILL INDEX
   HX - HEAT INDEX
  VSB - VISIBILITY




USA.gov is the U.S. government's official web portal to all federal, state and local government web resources and services.